Regional Weather Roundup
Issued by NWS

Home | Current Version | Previous Version | Text Only | Print | Product List | Glossary Off
Versions: 1 2 3 4 5 6 7 8 9 10 11 12 13 14 15 16 17 18 19 20 21 22 23 24 25 26 27 28 29 30 31 32 33 34 35 36 37 38 39 40 41 42 43 44 45 46 47 48 49 50

000
ASUS43 KIND 041459
RWRIN

WEATHER ROUNDUP FOR INDIANA
NATIONAL WEATHER SERVICE INDIANAPOLIS IN
1100 AM EDT SAT JUL 04 2015

NOTE: "FAIR" INDICATES FEW OR NO CLOUDS BELOW 12,000 FEET WITH NO
SIGNIFICANT WEATHER AND/OR OBSTRUCTIONS TO VISIBILITY.

* - STATION DOES NOT REPORT WEATHER SUCH AS PRECIPITATION OR FOG.

+ - STATION NOT QUALITY CONTROLLED BY THE NATIONAL WEATHER SERVICE.
    USE DATA WITH CAUTION...ESPECIALLY DEWPOINT AND RELATIVE
    HUMIDITY OBSERVATIONS.

INZ001>003-010>013-019-020-041600-
NORTHWEST INDIANA

CITY           SKY/WX    TMP DP  RH WIND       PRES   REMARKS
GARY /AIRPORT/ SUNNY    N/A N/A N/A CALM      30.01R
RENSSELAER +   SUNNY     70  63  78 CALM      30.02S

$$

LMZ046-743>745-041600-
SOUTHERN LAKE MICHIGAN

STATION/POSITION TIME  TEMP    WIND        PRES    WAVE
                       AIR SEA DIR/SP/G            HT
                 (UTC) (F)     (DEG/KT/KT) (MB)    (FT)
BURNS HARBOR     1400   68     270/  3/  4 1016.6S
MICHIGAN CITY    1400   65     210/  3/  4   N/A
5NW MICH CITY    1400   64 64  210/  4/  4   N/A     0

$$

INZ004-005-014>016-021>024-041600-
NORTH CENTRAL INDIANA

CITY           SKY/WX    TMP DP  RH WIND       PRES   REMARKS
GOSHEN         SUNNY     70  56  61 N3        30.01S
SOUTH BEND     SUNNY     72  56  57 CALM      30.02R

$$

INZ006>009-017-018-025>027-041600-
NORTHEAST INDIANA

CITY           SKY/WX    TMP DP  RH WIND       PRES   REMARKS
ANGOLA *+        N/A     72  64  78 CALM      30.00F
FORT WAYNE     MOSUNNY   73  60  63 VRB3      30.02S

$$

INZ028-029-035-036-043>045-051>053-041600-
WEST CENTRAL INDIANA

CITY           SKY/WX    TMP DP  RH WIND       PRES   REMARKS
CRAWFORDSVL +  SUNNY     71  54  55 CALM      30.03S
GREENCASTLE +  SUNNY     72  55  56 NE5       30.03S
LAFAYETTE      SUNNY     70  60  70 CALM      30.02R
TERRE HAUTE    SUNNY     75  62  64 NE6       30.02S

$$

INZ030>032-037>040-046>048-054>057-064-065-041600-
CENTRAL INDIANA

CITY           SKY/WX    TMP DP  RH WIND       PRES   REMARKS
GREENWOOD *+   SUNNY     73  59  60 SE3       30.03S
INDIANAPOLIS   MOSUNNY   75  58  55 N3        30.01R
-EAGLE CREEK   SUNNY     73  59  61 N3        30.01S
KOKOMO *+      SUNNY     73  61  64 N5        30.01S
MT COMFORT *+  SUNNY     73  52  46 CALM      30.03R
SHELBYVILLE    SUNNY     74  61  63 CALM      30.01S

$$

INZ033-034-041-042-049-050-058-059-041600-
EAST CENTRAL INDIANA

CITY           SKY/WX    TMP DP  RH WIND       PRES   REMARKS
MUNCIE         SUNNY     73  58  59 CALM      30.02S

$$

INZ060-061-067>069-081>083-085>088-041600-
SOUTHWEST INDIANA

CITY           SKY/WX    TMP DP  RH WIND       PRES   REMARKS
EVANSVILLE     PTSUNNY   77  66  68 N7        30.01S
HUNTINGBURG *+ MOSUNNY   73  66  78 NE5       30.01R

$$

INZ062-063-066-070>080-084-089>092-041600-
SOUTH CENTRAL AND SOUTHEAST INDIANA

CITY           SKY/WX    TMP DP  RH WIND       PRES   REMARKS
BLOOMINGTON    MOSUNNY   75  63  66 E6        30.02R
MADISON *+     PTSUNNY   73  63  68 CALM      30.03S
SEYMOUR +      PTSUNNY   75  64  69 CALM      30.01S

$$




USA.gov is the U.S. government's official web portal to all federal, state and local government web resources and services.